Vertical_Velocity
-1 -11 1 8 -4 0 -4 -2 -2 6 -1 -5 -2 -2 4 4 -15 -3 11 -5 4 1 -1 -4 -3 -1 -5 -3 -2 -3 0 -3 -2 -3 -3 -4 -1 -1 1 1 -2 2 0 -0
-4 -11 7 -2 -0 -5 -3 -1 0 0 3 -6 -2 -3 6 5 3 -10 3 7 1 -4 -6 -1 -2 -3 -3 -0 0 -3 2 -3 -1 -1 1 -3 -1 -1 -0 -1 0 1 1 -1
-14 9 -6 3 2 -5 -2 1 5 -4 -3 -8 -10 2 -2 11 1 5 -11 -0 3 -2 -2 6 1 -3 -4 1 -2 -0 -3 -1 -4 -3 1 -1 -1 -3 -1 -1 -0 -5 -1 -3
-15 9 -3 -8 -1 7 -13 4 2 1 -0 -11 4 -28 -4 -0 -0 1 5 6 10 -13 -9 11 4 0 -1 5 -4 3 -3 -1 -1 -4 2 -1 0 -0 0 0 1 -1 -0 -1
17 -10 2 -11 8 -1 -0 -2 -3 3 -5 -12 33 -34 45 5 1 6 2 -1 9 2 -11 2 4 4 -2 9 -1 -2 -4 1 -1 -2 -2 0 -2 -2 -1 -0 -0 2 -3 0
-1 -1 -10 7 -8 -1 1 -2 2 1 13 -56 72 7 -8 2 13 3 -7 1 12 -15 -0 -0 5 -1 -0 2 1 2 -0 1 -1 0 -2 -1 -1 -0 -0 1 -0 -2 -1 -3
17 -9 4 2 -14 9 1 13 -9 -25 11 -57 52 7 -46 0 24 3 0 2 10 2 -1 -1 1 2 -4 4 -0 -1 -1 4 2 -0 0 1 0 1 -3 -1 -2 -2 0 -1
-6 -9 32 10 -27 15 -16 25 -20 12 4 -17 12 -21 -8 -2 7 12 19 -23 14 3 2 -3 -3 -1 -5 9 1 -4 -4 4 2 1 0 -0 -1 0 1 0 0 -1 -0 2
-3 -20 54 -9 -10 6 25 -37 39 -7 -16 0 -11 4 -13 26 10 1 -0 19 -10 9 7 -6 -1 -3 -2 -3 6 1 0 2 4 0 -0 3 3 -1 -2 -3 0 -3 -4 -3
11 -5 11 5 4 7 3 24 1 -5 -17 5 -31 -4 -5 3 -4 -6 -5 13 -4 -4 7 -1 -4 -0 4 2 0 0 1 0 1 1 -1 2 2 -1 -0 1 1 -0 -2 -3
-5 2 9 7 -16 12 12 5 0 24 11 2 -3 1 -14 13 13 15 8 3 7 10 7 3 3 2 -2 -3 0 -0 -0 1 1 -1 -0 -0 -0 -2 -2 -1 -3 -2 -4 -4
-1 -5 17 19 7 6 4 2 2 2 -8 -7 -2 -60 17 -8 -4 6 5 11 7 6 2 0 3 -3 -4 -3 -1 3 -1 -1 -2 -1 -3 -2 0 -0 -1 -1 -1 0 2 -1
-3 6 -1 10 3 1 21 13 -17 2 11 -0 14 -43 8 -6 2 -8 10 1 -2 -4 -8 4 4 -3 3 1 -2 0 1 -0 -0 -0 -3 -1 0 -0 2 -1 -3 -2 -1 -4
1 -1 -12 -10 6 1 -0 -2 -0 0 -5 -8 -6 0 13 3 8 -5 16 19 4 8 -10 14 1 -2 1 2 3 -2 1 0 -2 -1 0 3 -2 -1 2 -1 -3 -2 -3 -2
-5 -4 3 -1 -6 9 7 -8 0 -14 5 15 7 -10 8 1 17 9 20 -7 -5 2 -26 18 2 -5 -3 -0 2 -4 -0 1 -1 -0 -2 1 -1 -0 -1 -1 -3 -2 -4 -4
4 -32 14 -20 3 6 -9 -7 -18 20 3 6 -8 -30 6 5 5 5 8 16 -12 2 -32 23 -1 2 -2 0 2 -0 2 -3 0 -1 -0 -2 -2 -1 -2 -5 -3 -2 -4 -4
-3 -5 7 -20 5 4 -11 -3 11 12 -14 -5 -14 -2 15 3 9 1 -15 18 -22 47 -32 14 24 -3 -2 -1 1 2 1 0 1 -1 -1 -3 -0 -2 -2 -3 -3 -3 -2 -1
-3 -6 8 -13 10 -15 -12 -5 11 -2 -3 -2 3 -3 -8 -2 10 -8 -11 16 5 -3 -17 -0 16 -10 2 1 2 2 2 1 -3 -3 -2 1 -1 -0 -2 -3 -2 -2 -2 -3
-5 3 -10 -10 -3 -4 -43 6 12 8 -17 -3 4 -28 -9 6 -4 -27 1 10 2 9 0 -5 15 3 1 3 2 3 -1 -2 -4 -3 -1 -1 -1 -2 -2 -2 -3 -3 -2 -0
2 -1 2 12 -4 -19 -16 14 7 23 -55 51 9 -13 -13 5 -10 -22 3 19 5 -8 1 -1 -2 1 1 2 2 0 -1 -4 -1 0 1 -3 -1 -2 -3 -3 -1 -3 -4 -4
3 -4 -13 1 -7 -20 -12 30 -1 25 -10 -10 -1 -12 5 7 11 16 11 4 7 -2 -1 -1 3 -1 1 2 -1 -3 -3 -2 -1 -2 1 -2 -0 -2 -0 -1 -2 -3 -5 -4
-1 5 13 27 8 -46 46 -5 -6 -2 9 -9 7 -8 8 20 11 3 0 -1 0 -3 -1 3 0 2 -1 -1 -2 -1 -1 -1 -2 0 1 -1 -1 -3 -2 -2 -3 -2 -2 -5
-43 17 6 15 24 38 17 -4 1 35 40 2 1 -2 3 -6 8 -0 0 -2 -2 -4 2 4 3 -1 -0 -1 0 -1 -1 -0 -0 0 -0 -1 -1 0 -1 -0 -2 -4 -5 -4
-5 11 -26 -2 30 -12 -2 -2 2 -8 -0 0 -0 -7 -5 -13 -4 -2 -7 -2 -2 3 9 13 -0 -0 0 1 -1 -2 -1 0 1 -0 -0 -0 -0 1 -1 -2 -1 -4 -2 -4
12 10 2 -25 2 -3 3 9 -11 21 9 6 1 -4 -3 2 -1 -3 -3 8 8 4 8 0 -0 1 1 0 -1 0 1 1 -0 0 -0 -0 1 0 0 -4 -5 -3 -2 -1
12 4 -19 -2 7 10 22 3 14 8 32 12 1 -3 2 -5 -4 9 7 -1 1 3 0 -0 1 3 2 -0 0 1 0 0 0 0 1 1 -1 -1 -3 -2 -1 2 -0 -2
Height
5748 5746 5747 5753 5751 5750 5749 5752 5751 5755 5755 5752 5745 5749 5751 5752 5742 5747 5750 5744 5749 5751 5748 5750 5753 5752 5751 5752 5751 5750 5751 5750 5750 5750 5749 5749 5748 5748 5747 5747 5745 5745 5743 5743
5736 5735 5742 5744 5742 5741 5740 5743 5743 5746 5747 5745 5741 5741 5743 5744 5745 5737 5736 5741 5737 5741 5740 5742 5744 5742 5743 5743 5742 5742 5743 5742 5742 5741 5740 5740 5740 5739 5738 5737 5736 5734 5732 5732
5724 5730 5728 5729 5733 5732 5732 5733 5735 5736 5736 5735 5733 5735 5737 5738 5737 5735 5728 5731 5733 5728 5730 5734 5736 5735 5736 5736 5736 5735 5735 5735 5733 5732 5732 5730 5730 5729 5729 5727 5725 5724 5722 5720
5714 5718 5716 5716 5718 5722 5722 5723 5723 5723 5723 5722 5728 5721 5726 5728 5729 5726 5728 5725 5727 5720 5719 5725 5726 5727 5727 5728 5727 5726 5725 5726 5724 5723 5722 5721 5719 5718 5717 5717 5715 5713 5711 5710
5707 5703 5706 5704 5708 5708 5714 5712 5710 5712 5710 5711 5719 5710 5719 5721 5720 5720 5716 5716 5717 5714 5712 5716 5717 5718 5718 5720 5718 5717 5717 5717 5716 5715 5713 5711 5709 5708 5706 5705 5703 5701 5699 5697
5690 5691 5691 5695 5694 5697 5698 5699 5701 5700 5701 5698 5711 5703 5712 5715 5713 5711 5708 5705 5704 5702 5706 5707 5708 5709 5709 5709 5708 5708 5707 5707 5705 5704 5703 5701 5699 5697 5695 5693 5690 5688 5685 5682
5674 5677 5680 5679 5681 5684 5687 5689 5686 5686 5686 5688 5700 5693 5702 5705 5700 5700 5694 5693 5695 5693 5697 5697 5697 5697 5698 5698 5697 5696 5696 5695 5693 5692 5690 5689 5686 5684 5682 5679 5676 5674 5671 5668
5660 5664 5667 5668 5669 5673 5675 5676 5673 5670 5676 5681 5687 5682 5692 5692 5688 5689 5685 5681 5683 5683 5683 5683 5684 5685 5685 5685 5683 5683 5682 5682 5680 5678 5676 5675 5672 5670 5668 5665 5662 5659 5657 5654
5645 5651 5657 5655 5653 5658 5667 5660 5667 5658 5665 5665 5675 5675 5678 5682 5672 5673 5674 5670 5669 5672 5670 5670 5671 5671 5673 5672 5671 5670 5668 5668 5666 5665 5663 5662 5659 5656 5654 5651 5648 5645 5642 5638
5638 5638 5641 5639 5645 5651 5650 5655 5653 5646 5649 5654 5661 5665 5666 5666 5656 5662 5663 5660 5656 5657 5658 5657 5658 5660 5661 5661 5659 5658 5657 5656 5654 5651 5649 5648 5645 5642 5640 5637 5634 5630 5625 5621
5622 5627 5637 5630 5635 5640 5641 5640 5642 5643 5641 5645 5649 5654 5653 5652 5649 5651 5648 5648 5646 5647 5647 5647 5647 5647 5649 5648 5647 5646 5645 5643 5641 5638 5636 5634 5631 5628 5625 5622 5619 5615 5610 5605
5611 5616 5619 5621 5625 5627 5628 5626 5630 5630 5632 5634 5640 5644 5646 5639 5636 5640 5637 5636 5636 5636 5635 5635 5635 5635 5635 5636 5634 5633 5631 5630 5628 5626 5624 5621 5618 5615 5612 5607 5603 5598 5593 5587
5597 5605 5608 5611 5613 5619 5619 5618 5615 5620 5621 5622 5623 5632 5636 5631 5630 5626 5627 5626 5624 5623 5623 5624 5624 5624 5625 5624 5623 5622 5620 5618 5616 5613 5611 5609 5605 5601 5597 5592 5588 5583 5578 5573
5587 5590 5593 5598 5600 5605 5603 5604 5607 5608 5611 5613 5612 5617 5622 5621 5621 5617 5617 5613 5611 5611 5612 5616 5615 5614 5614 5613 5612 5611 5608 5606 5603 5600 5598 5595 5592 5588 5583 5578 5574 5569 5563 5558
5576 5578 5582 5583 5589 5592 5592 5592 5595 5594 5599 5597 5599 5599 5608 5611 5611 5607 5604 5597 5597 5601 5603 5608 5606 5605 5603 5603 5601 5598 5596 5594 5592 5589 5587 5583 5579 5575 5570 5565 5560 5554 5548 5541
5565 5568 5572 5570 5579 5576 5575 5583 5589 5586 5586 5582 5584 5587 5597 5599 5595 5592 5592 5592 5587 5591 5591 5601 5598 5592 5592 5592 5590 5588 5586 5584 5582 5578 5575 5571 5567 5562 5557 5552 5546 5539 5532 5524
5554 5558 5561 5561 5565 5564 5562 5578 5576 5576 5576 5577 5577 5586 5588 5586 5583 5580 5581 5585 5578 5583 5578 5588 5588 5584 5583 5582 5579 5578 5576 5573 5571 5567 5563 5559 5555 5550 5544 5539 5532 5525 5517 5509
5543 5547 5549 5550 5554 5548 5561 5565 5565 5563 5567 5569 5569 5570 5575 5576 5575 5570 5574 5574 5574 5572 5572 5580 5577 5573 5572 5570 5568 5567 5566 5563 5561 5557 5553 5549 5545 5540 5534 5528 5520 5513 5505 5497
5534 5536 5538 5539 5541 5543 5547 5557 5555 5554 5555 5560 5559 5560 5565 5566 5565 5562 5565 5564 5565 5565 5566 5567 5567 5563 5562 5560 5559 5558 5557 5555 5551 5548 5544 5539 5535 5530 5524 5518 5511 5505 5497 5489
5524 5525 5527 5529 5527 5529 5540 5546 5545 5544 5541 5552 5546 5551 5553 5556 5555 5547 5553 5555 5556 5558 5557 5557 5556 5554 5553 5551 5551 5550 5548 5545 5542 5538 5534 5530 5526 5521 5516 5510 5504 5498 5490 5481
5515 5516 5516 5519 5518 5520 5531 5533 5533 5528 5539 5534 5538 5540 5543 5541 5542 5536 5542 5541 5544 5547 5547 5547 5547 5546 5546 5545 5543 5541 5538 5535 5532 5529 5526 5522 5519 5515 5510 5505 5499 5492 5484 5475
5506 5506 5508 5511 5511 5514 5518 5518 5520 5527 5526 5525 5526 5528 5531 5530 5529 5529 5534 5536 5537 5538 5538 5539 5539 5538 5538 5537 5534 5532 5529 5527 5524 5521 5519 5517 5513 5509 5505 5500 5494 5487 5478 5469
5494 5500 5500 5500 5501 5506 5509 5511 5513 5512 5512 5516 5517 5518 5521 5522 5521 5525 5527 5528 5528 5528 5528 5529 5530 5530 5529 5527 5525 5523 5521 5519 5517 5515 5513 5511 5508 5505 5500 5495 5489 5481 5473 5463
5486 5489 5488 5490 5498 5497 5502 5503 5506 5509 5510 5509 5509 5508 5511 5512 5515 5517 5519 5519 5519 5519 5520 5519 5520 5520 5519 5518 5517 5516 5514 5512 5511 5510 5508 5506 5503 5499 5495 5490 5484 5476 5468 5459
5476 5478 5481 5484 5489 5493 5497 5498 5496 5497 5499 5502 5503 5501 5502 5504 5506 5508 5510 5509 5509 5510 5510 5511 5511 5512 5511 5511 5510 5509 5508 5507 5506 5505 5503 5501 5498 5494 5490 5484 5477 5471 5463 5454
5465 5468 5473 5477 5483 5482 5486 5487 5485 5488 5490 5493 5496 5495 5496 5498 5500 5501 5501 5502 5502 5502 5502 5503 5504 5504 5504 5504 5503 5503 5503 5502 5502 5501 5498 5496 5493 5489 5483 5478 5472 5465 5457 5448